This is the latest recevied weather packets stored in our database for station/object N6GPM. If no packets are shown the sender has not sent any weather packets the latest 10 day(s).
| Time | Temp. | Humidity | Pressure | Rain* | Wind** | Luminosity | Snow |
|---|---|---|---|---|---|---|---|
| 1777652469 | 13.33° C | 88% | 1018.3 hPa | 0 mm | - | 209 W/m² | - |
| 1777652167 | 13.33° C | 88% | 1018.5 hPa | 0 mm | - | 191 W/m² | - |
| 1777651863 | 13.33° C | 89% | 1018.6 hPa | 0 mm | - | 176 W/m² | - |
| 1777651560 | 13.33° C | 89% | 1018.4 hPa | 0 mm | - | 161 W/m² | - |
| 1777651256 | 12.78° C | 89% | 1018.7 hPa | 0 mm | - | 150 W/m² | - |
| 1777650953 | 13.33° C | 89% | 1018.6 hPa | 0 mm | - | 140 W/m² | - |
| 1777650650 | 12.78° C | 90% | 1018.5 hPa | 0 mm | - | 144 W/m² | - |
| 1777650044 | 12.78° C | 90% | 1018.3 hPa | 0 mm | - | 131 W/m² | - |
| 1777649742 | 12.22° C | 91% | 1018.4 hPa | 0 mm | - | 123 W/m² | - |
| 1777649438 | 12.22° C | 91% | 1018.7 hPa | 0 mm | - | 123 W/m² | - |
| 1777649135 | 12.22° C | 91% | 1018.5 hPa | 0 mm | - | 122 W/m² | - |
| 1777648833 | 12.22° C | 91% | 1018.5 hPa | 0 mm | - | 108 W/m² | - |
| 1777648529 | 12.22° C | 92% | 1018.3 hPa | 0 mm | - | 95 W/m² | - |
| 1777648226 | 12.22° C | 92% | 1018.4 hPa | 0 mm | - | 83 W/m² | - |
| 1777647921 | 12.22° C | 92% | 1018.4 hPa | 0 mm | - | 85 W/m² | - |
| 1777647619 | 12.22° C | 92% | 1018.3 hPa | 0 mm | - | 71 W/m² | - |
| 1777647315 | 12.22° C | 92% | 1018.4 hPa | 0 mm | - | 59 W/m² | - |
| 1777647013 | 12.22° C | 92% | 1018.4 hPa | 0 mm | - | 63 W/m² | - |
| 1777646404 | 12.22° C | 92% | 1018.3 hPa | 0 mm | - | 51 W/m² | - |
| 1777646101 | 12.22° C | 92% | 1018.4 hPa | 0 mm | - | 49 W/m² | - |
| 1777645797 | 12.22° C | 92% | 1018.2 hPa | 0 mm | - | 48 W/m² | - |
| 1777645495 | 12.22° C | 92% | 1018.2 hPa | 0 mm | - | 44 W/m² | - |
| 1777645190 | 12.22° C | 92% | 1018.1 hPa | 0 mm | - | 42 W/m² | - |
| 1777644886 | 12.22° C | 92% | 1018.1 hPa | 0 mm | - | 35 W/m² | - |
| 1777644585 | 12.22° C | 91% | 1018.1 hPa | 0 mm | - | 32 W/m² | - |
* Rain latest hour (hover to see other rain measurements)
** Current wind speed in m/s (hover to see current wind gust speed)